Tracking 18844 objects as of 21-Nov-2017
HD Live streaming from Space Station
objects crossing your sky now

COSMOS 2251 DEB

Track COSMOS 2251 DEB now!
10-day predictions


NORAD ID: 35442
Int'l Code: 1993-036AKL
Perigee: 740.0 km
Apogee: 764.5 km
Inclination: 74.0 °
Period: 99.7 minutes
Semi major axis: 7123 km
RCS: 0.0032 m2 (small)
Launch date: June 16, 1993
Source: Commonwealth of Independent States (former USSR) (CIS)
Launch site: PLESETSK MISSILE AND SPACE COMPLEX (PKMTR)

Note: This is SATELLITE DEBRIS
aabbcc
Your satellite tracking list
Your tracking list is empty




NASA's NSSDC Master Catalog

Two Line Element Set (TLE):
1 35442U 93036AKL 17325.44888024  .00001094  00000-0  32700-3 0  9994
2 35442  74.0422 242.6047 0017186 282.7292 196.1695 14.44067216447893
Source of the keplerian elements: AFSPC